Regional Weather Roundup
Issued by NWS

Home | Current Version | Previous Version | Text Only | Print | Product List | Glossary Off
Versions: 1 2 3 4 5 6 7 8 9 10 11 12 13 14 15 16 17 18 19 20 21 22 23 24 25 26 27 28 29 30 31 32 33 34 35 36 37 38 39 40 41 42 43 44 45 46 47 48 49 50

000
ASUS43 KDMX 140608
RWRIA

WEATHER ROUNDUP FOR IOWA
NATIONAL WEATHER SERVICE DES MOINES IA
1200 AM CST SUN FEB 14 2016

NOTE: "FAIR" INDICATES FEW OR NO CLOUDS BELOW 12,000 FEET WITH NO
SIGNIFICANT WEATHER AND/OR OBSTRUCTIONS TO VISIBILITY.

* - THESE STATIONS ARE NOT NWS STATIONS...THUS NOT UNDER NWS
QUALITY CONTROL.  THEY ALSO DO NOT REPORT WEATHER SUCH
AS PRECIPITATION OR FOG.

IAZ001>003-012>014-020>022-031>034-043>046-140700-
   NORTHWEST IOWA

CITY           SKY/WX    TMP DP  RH WIND       PRES   REMARKS
CARROLL *      CLOUDY    12  10  92 SE17G23   30.19F WCI  -5
CHEROKEE *     FLURRIES  13  10  89 SE14G20   30.16F WCI  -3
DENISON *      CLOUDY    16  10  79 SE9       30.12F WCI   4
LE MARS *      CLOUDY    16  12  86 SE16      30.14R WCI   0
ORANGE CITY *  CLOUDY    12  10  92 SE14G23   30.10S FOG     WCI  -3
SHELDON *      CLOUDY    12   9  85 SE22      30.10F FOG     WCI  -7
SIOUX CITY     CLOUDY    18   6  59 SE15      30.13S WCI   4
6HR MIN TEMP:  16; 6HR MAX TEMP:  18;

SPENCER        LGT SNOW  11   6  81 SE22      30.15F WCI  -8
6HR MIN TEMP:   9; 6HR MAX TEMP:  11; 6HR PCP: TRACE;

STORM LAKE *   CLOUDY    10  10 100 SE20      30.13F WCI  -8
$$

IAZ055>058-069>071-079>083-090>094-140700-
   SOUTHWEST IOWA

CITY           SKY/WX    TMP DP  RH WIND       PRES   REMARKS
ATLANTIC *     CLOUDY    18   5  57 SE12G17   30.17F WCI   5
AUDUBON *      CLOUDY    16   9  73 SE12      30.17F WCI   3
CLARINDA *     CLOUDY    19   1  45 SE12      30.20F WCI   7
COUNCIL BLFS * CLOUDY    18   5  57 SE18G25   30.13F WCI   2
CRESTON *      CLOUDY    16   5  62 SE17      30.18F WCI   0
HARLAN  *      CLOUDY    18   7  62 SE15      30.19F WCI   3
LAMONI         CLOUDY    17   6  62 E10G18    30.21F WCI   5
6HR MIN TEMP:  15; 6HR MAX TEMP:  17; 6HR PCP: TRACE;

RED OAK *      CLOUDY    19   1  45 SE13      30.18F WCI   7
SHENANDOAH *   CLOUDY    21   3  45 SE15      30.18F WCI   8
$$

IAZ047>049-059>061-072>074-084-140700-
   CENTRAL IOWA

CITY           SKY/WX    TMP DP  RH WIND       PRES   REMARKS
AMES           FLURRIES  13  10  88 SE13      30.27F WCI  -2
6HR MIN TEMP:  13; 6HR MAX TEMP:  14; 6HR PCP: TRACE;

ANKENY *       CLOUDY    14  10  85 SE12G18   30.28F WCI   0
BOONE *        CLOUDY    12  10  92 SE20      30.23F WCI  -6
CHARITON *     CLOUDY    16   7  67 SE15      30.26F WCI   1
DES MOINES     FLURRIES  15   9  76 SE12G21   30.27F WCI   2
6HR MIN TEMP:  14; 6HR MAX TEMP:  16; 6HR PCP:  0.09;

GRINNELL*      LGT SNOW  14  12  92 SE12      30.30F WCI   0
KNOXVILLE *    CLOUDY    14   9  79 SE14      30.27F WCI  -1
MARSHALLTOWN   LGT SNOW  14  10  84 SE15      30.29F FOG     WCI  -1
6HR MIN TEMP:  12; 6HR MAX TEMP:  16; 6HR PCP: TRACE;

NEWTON *       LGT SNOW  14  12  92 SE13      30.30F WCI   0
PELLA *        MOCLDY    15  12  87 SE10G18   30.31F WCI   2
$$

IAZ004>006-015-016-023>025-035-036-140700-
   NORTH CENTRAL IOWA

CITY           SKY/WX    TMP DP  RH WIND       PRES   REMARKS
ALGONA *       LGT SNOW  12   9  85 SE18      30.20F WCI  -5
CLARION *      CLOUDY    12   7  79 SE17      30.25F HAZE    WCI  -5
ESTHERVILLE    LGT SNOW  10   8  92 SE22      30.17F VSB 3/4 WCI -10
6HR MIN TEMP:   8; 6HR MAX TEMP:  10; 6HR PCP: TRACE;

FORT DODGE *   CLOUDY    12   7  79 SE13      30.24F WCI  -3
MASON CITY     LGT SNOW   8   3  80 SE15      30.27F WCI  -9
6HR MIN TEMP:   6; 6HR MAX TEMP:   8; 6HR PCP: TRACE;

FOREST CITY *  LGT SNOW  10   5  79 SE14      30.24F WCI  -5
WEBSTER CITY * CLOUDY    14  10  85 SE21      30.22F FOG     WCI  -4
IOWA FALLS *   LGT SNOW  14  10  85 SE10      30.28F WCI   1
$$

IAZ007>011-017>019-026>030-037>042-050>054-066-140700-
   NORTHEAST IOWA

CITY           SKY/WX    TMP DP  RH WIND       PRES   REMARKS
CEDAR RAPIDS   CLOUDY    16   1  51 SE8       30.34F WCI   5
6HR MIN TEMP:  15; 6HR MAX TEMP:  16;

CHARLES CITY * CLOUDY    10   0  61 SE12      30.31F WCI  -4
CLINTON *      CLOUDY    15   3  59 E9        30.41F WCI   3
DUBUQUE        CLOUDY    11  -1  58 SE8       30.36F WCI  -1
6HR MIN TEMP:   8; 6HR MAX TEMP:  11;

MONTICELLO *   CLOUDY    14   1  57 SE8       30.37F WCI   3
OELWEIN *      CLOUDY    12   3  67 SE12      30.34F WCI  -2
WATERLOO       CLOUDY    14   3  61 SE8       30.33F WCI   3
6HR MIN TEMP:   9; 6HR MAX TEMP:  14;

$$

IAZ064-065-067-068-078-140700-
   EAST CENTRAL IOWA

CITY           SKY/WX    TMP DP  RH WIND       PRES   REMARKS
DAVENPORT      CLOUDY    17  -1  45 SE10      30.40F WCI   5
6HR MIN TEMP:  15; 6HR MAX TEMP:  17;

IOWA CITY      CLOUDY    18   0  45 SE8       30.39F WCI   8
6HR MIN TEMP:  17; 6HR MAX TEMP:  18;

MT. PLEASANT * LGT SNOW  18  15  88 E8        30.38F WCI   8
MUSCATINE *    CLOUDY    19   1  45 SE8G15    30.41S WCI   9
QUAD CITIES    CLOUDY    18   0  45 SE7       30.41F WCI   9
6HR MIN TEMP:  17; 6HR MAX TEMP:  18;

$$

IAZ062-063-075>077-085>089-095>099-140700-
   SOUTHEAST IOWA

CITY           SKY/WX    TMP DP  RH WIND       PRES   REMARKS
BURLINGTON     LGT SNOW  16  13  88 SE8       30.39S VSB 1   WCI   5
6HR MIN TEMP:  16; 6HR MAX TEMP:  19; 6HR PCP:  0.03;

FAIRFIELD *    LGT SNOW  16  12  86 SE8       30.36F WCI   5
FORT MADISON * LGT SNOW  16  12  86 SE6       30.39S WCI   7
KEOKUK *       FLURRIES  18  14  86 SE10      30.38F WCI   6
OSKALOOSA *    LGT SNOW  15  12  90 SE10      30.33F WCI   2
CENTERVILLE *  CLOUDY    16   9  73 E14       30.30F WCI   1
OTTUMWA        LGT SNOW  15  12  88 SE8       30.34F FOG     WCI   4
6HR MIN TEMP:  14; 6HR MAX TEMP:  17; 6HR PCP:  0.01;

WASHINGTON *   LGT SNOW  16  12  86 SE10      30.38F WCI   3
$$

ABBREVIATIONS USED IN REMARKS
   TC - TEMPERATURES IN CELSIUS
  WCI - WIND CHILL INDEX
   HX - HEAT INDEX
  VSB - VISIBILITY
$$




USA.gov is the U.S. government's official web portal to all federal, state and local government web resources and services.